Tracking 29594 objects as of 20-Sep-2024
HD Live streaming from Space Station
objects crossing your sky now

ARIANE 44L DEB

Track ARIANE 44L DEB now!


NORAD ID: 24741
Int'l Code: 1991-003H
Perigee: 657.3 km
Apogee: 30,678.2 km
Inclination: 6.7 °
Period: 542.7 minutes
Semi major axis: 22038 km
RCS: 0.2921 m2 (medium)
Launch date: January 15, 1991
Source: France (FR)
Launch site: FRENCH GUIANA (FRGUI)

Note: This is SATELLITE DEBRIS
Your satellite tracking list
Your tracking list is empty




NASA's NSSDC Master Catalog

Two Line Element Set (TLE):
1 24741U 91003H   24259.63670612  .00000068  00000-0  61590-3 0  9992
2 24741   6.7129 105.8180 6810953   7.1744   4.9445  2.65352641182756
Source of the keplerian elements: AFSPC